Location: Brodeslavy
(49.9527°N, 13.5567°E)
Time: 05:25:27
(UTC+00:00)

Meteor 1-15 Rocket - Pass Details

Date: 17 June 2025
Orbit: 838 x 906 km, 81.2° (Epoch: 12 July)

Event Time Altitude Azimuth Distance (km) Brightness Sun altitude
Rises 20:23:05 0° 346° (NNW) 3,436 8.8 -8.2°
Reaches altitude 10° 20:25:32 10° 345° (NNW) 2,488 7.9 -8.4°
Maximum altitude 20:31:09 78° 261° (W) 868 4.4 -8.9°
Drops below altitude 10° 20:36:41 10° 176° (S) 2,448 6.1 -9.4°
Enters shadow 20:37:13 - 176° (S) 2,654 6.3 -9.5°
